Overview Statistics Trail Chart Weather Telemetry Raw packets
 

This is the latest recevied weather packets stored in our database for station/object SV2RCS-13. If no packets are shown the sender has not sent any weather packets the latest 10 day(s).

<< 14 15 16 17 18 19 20 >>
Time Temp. Humidity Pressure Rain* Wind** Luminosity Snow
1788169539 31.11° C 17% 1012.4 hPa - - - -
1788168939 32.22° C 16% 1012.3 hPa - - - -
1788168339 33.33° C 15% 1012.1 hPa - - - -
1788167739 31.67° C 16% 1012.8 hPa - - - -
1788167139 32.78° C 16% 1012.4 hPa - - - -
1788166539 32.22° C 16% 1012.6 hPa - - - -
1788165939 32.78° C 16% 1012.4 hPa - - - -
1788165339 33.89° C 15% 1012.3 hPa - - - -
1788164739 33.33° C 16% 1012.3 hPa - - - -
1788164140 32.78° C 16% 1012.5 hPa - - - -
1788163538 32.22° C 16% 1012.7 hPa - - - -
1788162938 32.78° C 18% 1012.5 hPa - - - -
1788162339 32.78° C 17% 1012.5 hPa - - - -
1788161739 31.67° C 19% 1013 hPa - - - -
1788161138 32.22° C 18% 1012.6 hPa - - - -
1788160540 32.78° C 19% 1012.6 hPa - - - -
1788159938 32.22° C 21% 1012.9 hPa - - - -
1788159339 30.56° C 24% 1013.3 hPa - - - -
1788158739 31.67° C 21% 1013.1 hPa - - - -
1788158138 31.11° C 26% 1013.2 hPa - - - -
1788157542 30.56° C 29% 1013.4 hPa - - - -
1788156938 31.11° C 29% 1013.4 hPa - - - -
1788156352 31.11° C 32% 1013.3 hPa - - - -
1788155740 30° C 32% 1013.7 hPa - - - -
1788155139 28.89° C 36% 1013.9 hPa - - - -

* Rain since midnight (hover to see other rain measurements)
** Current wind speed in m/s (hover to see current wind gust speed)